Location: Nairn
(57.5833°N, 3.8667°W)
Time: 14:32:45
(UTC+00:00)

Vanguard 1 - Pass Details

Date: 02 December 2020
Orbit: 648 x 3834 km, 34.3° (Epoch: 17 January)

Event Time Altitude Azimuth Distance (km) Brightness Sun altitude
Rises 07:18:15 0° 233° (SW) 3,866 12.9 -9.2°
Reaches altitude 10° 07:22:01 10° 210° (SSW) 3,343 12.8 -8.8°
Maximum altitude 07:26:30 15° 178° (S) 3,475 13.3 -8.3°
Drops below altitude 10° 07:32:20 10° 148° (SSE) 4,570 14.6 -7.6°
Sets 07:39:17 0° 130° (SE) 6,325 16.4 -6.8°
